Weather History for Lee's Summit, MO

Change the Weather History Date:

Tuesday, February 19, 2013

  Actual Average (KMKC) Record (KMKC)
Temperature  
Mean Temperature 28 °F -  
Max Temperature 35 °F 44 °F 66 °F (2004)
Min Temperature 19 °F 28 °F 10 °F (2006)
Degree Days  
Heating Degree Days 37    
Moisture  
Dew Point 8 °F    
Average Humidity 48    
Maximum Humidity 68    
Minimum Humidity 25    
Precipitation  
Precipitation 0.00 in - - ()
Sea Level Pressure  
Sea Level Pressure 30.27 in    
Wind  
Wind Speed 11 mph (NW)    
Max Wind Speed 22 mph    
Max Gust Speed 31 mph    
Visibility 10 miles    
Events      
Averages and records for this station are not official NWS values.
T = Trace of Precipitation, MM = Missing Value Source: NWS Daily Summary

Daily Weather History Graph

Daily Weather History Graph

Search for Another Location

Airport:

Trip Planner

Search our weather history database for the weather conditions in past years. The results will help you decide how hot, cold, wet, or windy it might be!

Date:

Astronomy

Feb. 19, 2013 Rise Set
Actual Time 7:03 AM CST 5:59 PM CST
Civil Twilight 6:36 AM CST 6:26 PM CST
Nautical Twilight 6:05 AM CST 6:57 PM CST
Astronomical Twilight 5:34 AM CST 7:28 PM CST
Moon 12:33 PM CST 2:34 AM CST
Length of Visible Light 11h 50m
Length of Day
10h 56m
Waxing Gibbous, 67% of the Moon is Illuminated
Feb 19
Waxing Gibbous
Feb 25
Full
Mar 4
Last Quarter
Mar 11
New
Mar 19
First Quarter

Hourly Weather History & Observations

Time (CST) Temp. Windchill Dew Point Humidity Pressure Visibility Wind Dir Wind Speed Gust Speed Precip Events Conditions
12:53 AM 27.0 °F 18.0 °F 15.1 °F 61% 30.11 in 10.0 mi WNW 9.2 mph - N/A   Clear
1:53 AM 27.0 °F 18.0 °F 15.1 °F 61% 30.12 in 10.0 mi West 9.2 mph - N/A   Clear
2:53 AM 26.1 °F 17.6 °F 15.1 °F 63% 30.13 in 10.0 mi West 8.1 mph - N/A   Clear
3:53 AM 25.0 °F 16.3 °F 15.1 °F 66% 30.14 in 10.0 mi WNW 8.1 mph - N/A   Clear
4:53 AM 25.0 °F 14.8 °F 15.1 °F 66% 30.16 in 10.0 mi NW 10.4 mph - N/A   Clear
5:53 AM 25.0 °F 13.1 °F 15.1 °F 66% 30.19 in 10.0 mi WNW 13.8 mph 25.3 mph N/A   Partly Cloudy
6:53 AM 23.0 °F 10.1 °F 14.0 °F 68% 30.22 in 10.0 mi NW 15.0 mph 27.6 mph N/A   Clear
7:53 AM 21.9 °F 9.8 °F 10.0 °F 60% 30.25 in 10.0 mi NW 12.7 mph 28.8 mph N/A   Clear
8:53 AM 21.9 °F 6.2 °F 7.0 °F 53% 30.28 in 10.0 mi NW 21.9 mph 31.1 mph N/A   Clear
9:53 AM 24.1 °F 10.1 °F 7.0 °F 48% 30.30 in 10.0 mi WNW 18.4 mph 26.5 mph N/A   Clear
10:53 AM 27.0 °F 14.7 °F 7.0 °F 43% 30.33 in 10.0 mi WNW 16.1 mph 21.9 mph N/A   Clear
12:53 PM 30.9 °F 19.4 °F 6.1 °F 35% 30.32 in 10.0 mi WNW 17.3 mph 25.3 mph N/A   Clear
1:53 PM 33.1 °F 23.0 °F 6.1 °F 32% 30.32 in 10.0 mi WNW 15.0 mph 20.7 mph N/A   Clear
2:53 PM 34.0 °F 26.6 °F 3.9 °F 28% 30.31 in 10.0 mi West 9.2 mph 21.9 mph N/A   Clear
3:53 PM 35.1 °F 26.4 °F 1.9 °F 25% 30.31 in 10.0 mi NNW 12.7 mph - N/A   Clear
4:53 PM 33.1 °F 23.9 °F 1.0 °F 26% 30.31 in 10.0 mi NW 12.7 mph - N/A   Clear
6:53 PM 26.1 °F 19.4 °F -0.0 °F 32% 30.32 in 10.0 mi NNW 5.8 mph - N/A   Clear
7:53 PM 25.0 °F 17.1 °F 1.9 °F 37% 30.34 in 10.0 mi NNW 6.9 mph - N/A   Clear
8:53 PM 24.1 °F - 1.9 °F 38% 30.35 in 10.0 mi Calm Calm - N/A   Clear
9:53 PM 21.9 °F 11.0 °F 5.0 °F 48% 30.35 in 10.0 mi North 10.4 mph - N/A   Clear
10:53 PM 21.9 °F 15.7 °F 3.9 °F 46% 30.38 in 10.0 mi North 4.6 mph - N/A   Clear
11:53 PM 19.9 °F 11.1 °F 5.0 °F 52% 30.38 in 10.0 mi North 6.9 mph - N/A   Clear